Stations météo

réclame
Mon MeteoGroup
Hereford/Credenhill, Grande-Bretagne (3522): Température de l'air & dewpoint: 14.09.2018 17:00:00 - 20.09.2018 17:00:00 (BST)Hereford/Credenhill, Grande-Bretagne (3522): Température de l'air -20cm & Température de l'air -100cm: 14.09.2018 17:00:00 - 20.09.2018 17:00:00 (BST)Hereford/Credenhill, Grande-Bretagne (3522): Vitesse du vent & gusts: 14.09.2018 17:00:00 - 20.09.2018 17:00:00 (BST)Hereford/Credenhill, Grande-Bretagne (3522): Direction du vent: 14.09.2018 17:00:00 - 20.09.2018 17:00:00 (BST)Hereford/Credenhill, Grande-Bretagne (3522): reduced air pressure: 14.09.2018 17:00:00 - 20.09.2018 17:00:00 (BST)Hereford/Credenhill, Grande-Bretagne (3522): visibility: 14.09.2018 17:00:00 - 20.09.2018 17:00:00 (BST)Hereford/Credenhill, Grande-Bretagne (3522): Quantités de précipitations: 14.09.2018 17:00:00 - 20.09.2018 17:00:00 (BST)
Date & Time tt [°C] td [°C] tt -20cm [°C] tt -100cm [°C] ff [km/h] ff [knt] fx [km/h] fx [knt] dd ppp [hPa] vv [km] rr [mm]
20.09.2018 17:00:00 17,8 16,2 - - 8 4 - - SW 1002,0 7 0,0
20.09.2018 16:00:00 17,7 16,3 - - 9 5 - - S 1002,9 10 0,0
20.09.2018 15:00:00 17,3 16,4 - - 8 4 - - S 1003,9 6 0,2
20.09.2018 14:00:00 16,0 16,0 - - 8 4 - - S 1005,0 8 1,6
20.09.2018 13:00:00 13,6 13,4 - - 5 3 - - E 1006,4 3,7 1,0
20.09.2018 12:00:00 12,8 12,6 - - 4 2 - - E 1008,3 2,8 5,2
20.09.2018 11:00:00 12,5 12,1 - - 5 3 - - E 1009,5 2,8 3,0
20.09.2018 10:00:00 12,4 12,1 14,7 14,4 5 3 - - NE 1010,4 4,2 1,8
20.09.2018 09:00:00 11,9 11,6 - - 4 2 - - E 1010,9 8 0,0
20.09.2018 08:00:00 11,5 11,2 - - 2 1 - - NW 1011,0 12 0,2
20.09.2018 07:00:00 11,1 10,9 - - 2 1 - - E 1011,0 13 0,2
20.09.2018 06:00:00 11,1 10,8 - - 2 1 - - W 1011,2 4,4 1,6
20.09.2018 05:00:00 11,0 10,7 - - 0 0 - - N 1011,2 4,2 3,0
20.09.2018 04:00:00 11,0 10,6 - - 4 2 - - E 1011,5 8 0,2
20.09.2018 03:00:00 11,1 10,5 - - 2 1 - - ESE 1012,3 10 1,0
20.09.2018 02:00:00 11,3 10,1 - - 0 0 - - N 1013,0 2,2 1,8
20.09.2018 01:00:00 12,3 9,3 - - 2 1 - - WSW 1012,7 17 0,0
20.09.2018 00:00:00 12,6 9,1 - - 5 3 - - WSW 1013,3 16 0,0
19.09.2018 23:00:00 13,1 8,0 - - 5 3 - - SW 1013,1 16 0,0
19.09.2018 22:00:00 13,4 7,7 - - 8 4 - - WSW 1013,3 14 0,0
19.09.2018 21:00:00 13,3 7,3 - - 5 3 - - WSW 1012,9 16 0,0
19.09.2018 20:00:00 14,3 6,4 - - 18 10 - - WSW 1012,6 18 0,0
19.09.2018 19:00:00 14,8 6,0 - - 18 10 46 25 WSW 1012,3 18 0,0
19.09.2018 18:00:00 15,9 5,8 - - 21 11 54 29 WSW 1011,3 15 0,0
19.09.2018 17:00:00 17,0 8,1 - - 24 13 54 29 WSW 1010,6 13 0,0
19.09.2018 16:00:00 18,0 10,9 - - 16 9 - - WSW 1009,5 12 0,0
19.09.2018 15:00:00 17,6 13,1 - - 16 9 - - WSW 1008,7 13 0,0
19.09.2018 14:00:00 19,1 14,1 - - 16 9 46 25 SW 1007,8 14 0,0
19.09.2018 13:00:00 18,6 12,8 - - 13 7 48 26 SW 1007,4 14 0,0
19.09.2018 12:00:00 20,1 11,1 - - 15 8 - - SW 1007,1 19 0,0
19.09.2018 11:00:00 19,6 11,5 - - 13 7 46 25 SW 1006,9 19 0,0
19.09.2018 10:00:00 18,8 12,7 14,9 14,2 16 9 - - SW 1007,0 14 0,0
19.09.2018 09:00:00 16,8 13,3 - - 8 4 - - SW 1007,2 13 0,0
19.09.2018 08:00:00 15,7 12,7 - - 8 4 - - SW 1007,4 13 0,0
19.09.2018 07:00:00 14,8 12,4 - - 5 3 - - SSE 1007,9 14 0,0
19.09.2018 06:00:00 14,6 12,9 - - 4 2 - - W 1008,4 13 0,0
19.09.2018 05:00:00 13,1 11,8 - - 4 2 - - E 1008,9 13 0,0
19.09.2018 04:00:00 14,2 12,7 - - 4 2 - - SE 1009,1 14 0,0
19.09.2018 03:00:00 13,7 12,2 - - 2 1 - - NNE 1009,6 17 0,0
19.09.2018 02:00:00 14,9 13,6 - - 4 2 - - SSE 1009,6 25 0,0
19.09.2018 01:00:00 16,1 13,2 - - 5 3 - - SW 1009,4 28 0,0
19.09.2018 00:00:00 16,9 13,8 - - 8 4 - - SW 1009,3 22 0,0
18.09.2018 23:00:00 17,0 14,1 - - 8 4 - - SW 1009,3 17 0,2
18.09.2018 22:00:00 17,8 14,0 - - 5 3 - - SSE 1009,2 20 0,0
18.09.2018 21:00:00 17,2 14,9 - - 5 3 - - SW 1008,6 11 0,0
18.09.2018 20:00:00 17,7 14,9 - - 5 3 - - SSE 1008,5 13 0,0
18.09.2018 19:00:00 18,7 13,2 - - 11 6 - - SW 1008,3 22 0,0
18.09.2018 18:00:00 18,9 13,6 - - 11 6 - - SW 1008,6 18 0,0
18.09.2018 17:00:00 19,7 13,4 - - 9 5 - - SW 1008,3 16 0,0
18.09.2018 16:00:00 20,5 13,2 - - 13 7 - - SW 1008,1 21 0,0
18.09.2018 15:00:00 20,9 14,2 - - 11 6 - - SW 1007,7 23 0,0
18.09.2018 14:00:00 19,1 14,3 - - 9 5 - - WSW 1007,7 26 0,0
18.09.2018 13:00:00 19,6 13,8 - - 9 5 - - SW 1007,2 28 0,0
18.09.2018 12:00:00 19,1 13,2 - - 16 9 46 25 WSW 1006,6 22 0,0
18.09.2018 11:00:00 18,4 11,8 - - 13 7 - - WSW 1006,0 22 0,0
18.09.2018 10:00:00 17,4 11,7 14,7 14,2 15 8 - - WSW 1004,7 28 0,0
18.09.2018 09:00:00 17,6 13,5 - - 11 6 - - SW 1003,2 28 0,0
18.09.2018 08:00:00 17,5 14,2 - - 11 6 - - SW 1001,5 35 0,0
18.09.2018 07:00:00 17,4 14,6 - - 13 7 - - SW 1000,3 30 0,0
18.09.2018 06:00:00 16,9 15,7 - - 8 4 - - SE 999,5 8 0,0
18.09.2018 05:00:00 17,4 15,9 - - 9 5 - - SSE 999,6 14 0,0
18.09.2018 04:00:00 17,7 15,9 - - 13 7 - - SSE 999,3 8 0,0
18.09.2018 03:00:00 18,0 15,7 - - 11 6 - - SSE 1000,6 16 0,0
18.09.2018 02:00:00 16,9 14,9 - - 11 6 - - SSE 1001,9 13 0,0
18.09.2018 01:00:00 15,5 13,6 - - 5 3 - - ESE 1003,1 14 0,0
18.09.2018 00:00:00 13,9 10,9 - - 4 2 - - E 1004,5 17 0,0
17.09.2018 23:00:00 14,1 11,8 - - 5 3 - - SE 1005,6 16 0,0
17.09.2018 22:00:00 12,5 10,8 - - 4 2 - - SE 1006,4 15 0,0
17.09.2018 21:00:00 14,9 12,2 - - 4 2 - - SE 1007,2 20 0,0
17.09.2018 20:00:00 16,7 12,4 - - 5 3 - - SSE 1007,8 21 0,0
17.09.2018 19:00:00 18,3 12,8 - - 8 4 - - SSE 1007,9 29 0,0
17.09.2018 18:00:00 20,1 13,9 - - 4 2 - - SSW 1008,5 24 0,0
17.09.2018 17:00:00 21,0 15,2 - - 8 4 - - S 1009,2 28 0,0
17.09.2018 16:00:00 20,0 15,5 - - 9 5 - - SE 1010,3 25 0,0
17.09.2018 15:00:00 19,6 15,7 - - 8 4 - - SSE 1011,2 27 0,0
17.09.2018 14:00:00 19,3 16,1 - - 8 4 - - SSE 1011,9 19 0,0
17.09.2018 13:00:00 18,5 17,0 - - 8 4 - - S 1012,6 11 0,0
17.09.2018 12:00:00 18,8 16,4 - - 5 3 - - SE 1012,9 11 0,0
17.09.2018 11:00:00 20,4 16,5 - - 5 3 - - S 1013,1 24 0,0
17.09.2018 10:00:00 19,0 16,1 14,5 14,4 5 3 - - SSE 1013,7 23 0,0
17.09.2018 09:00:00 17,8 16,4 - - 5 3 - - SSE 1013,9 28 0,0
17.09.2018 08:00:00 17,7 16,6 - - 4 2 - - SSE 1014,1 19 0,0
17.09.2018 07:00:00 17,3 16,3 - - 4 2 - - SSE 1013,9 18 0,0
17.09.2018 06:00:00 17,3 16,7 - - 5 3 - - S 1014,0 20 0,0
17.09.2018 05:00:00 17,0 16,7 - - 5 3 - - SSE 1014,5 12 0,0
17.09.2018 04:00:00 16,7 16,6 - - 4 2 - - SSE 1014,9 12 0,0
17.09.2018 03:00:00 16,4 16,4 - - 2 1 - - ESE 1015,2 13 0,0
17.09.2018 02:00:00 15,7 15,7 - - 2 1 - - SE 1015,8 17 0,0
17.09.2018 01:00:00 15,1 15,0 - - 2 1 - - ESE 1016,0 25 -
17.09.2018 00:00:00 14,4 14,1 - - 2 1 - - E 1016,4 2,5 0,0
16.09.2018 23:00:00 14,6 14,3 - - 2 1 - - E 1016,4 0,2 0,0
16.09.2018 22:00:00 14,8 14,1 - - 4 2 - - ENE 1016,4 9 0,0
16.09.2018 21:00:00 15,8 15,3 - - 2 1 - - W 1016,4 12 0,0
16.09.2018 20:00:00 16,7 15,6 - - 2 1 - - W 1015,8 13 0,0
16.09.2018 19:00:00 17,7 16,7 - - 2 1 - - SSW 1015,6 14 0,0
16.09.2018 18:00:00 18,2 16,5 - - 4 2 - - S 1015,3 17 0,0
16.09.2018 17:00:00 18,1 16,5 - - 4 2 - - SSE 1015,3 16 0,0
16.09.2018 16:00:00 18,2 16,4 - - 5 3 - - SE 1015,5 7 0,0
16.09.2018 15:00:00 19,5 15,5 - - 8 4 - - S 1015,6 25 0,0
16.09.2018 14:00:00 19,9 15,2 - - 8 4 - - SSW 1015,5 40 0,0
16.09.2018 13:00:00 19,7 14,9 - - 8 4 - - SW 1015,6 26 0,0
16.09.2018 12:00:00 17,0 14,4 - - 5 3 - - WSW 1016,2 20 0,0
16.09.2018 11:00:00 16,5 13,5 - - 8 4 - - SSW 1016,3 20 0,0
16.09.2018 10:00:00 15,8 12,9 14,0 14,4 5 3 - - WSW 1016,5 24 0,0
16.09.2018 09:00:00 15,9 11,7 - - 5 3 - - S 1016,5 23 0,0
16.09.2018 08:00:00 14,2 10,6 - - 8 4 - - SE 1016,4 29 0,0
16.09.2018 07:00:00 13,2 9,9 - - 4 2 - - E 1016,4 24 0,0
16.09.2018 06:00:00 13,3 10,1 - - 5 3 - - SSW 1016,9 18 0,0
16.09.2018 05:00:00 13,2 10,3 - - 4 2 - - S 1017,2 18 0,0
16.09.2018 04:00:00 13,4 10,8 - - 4 2 - - SW 1017,9 24 0,0
16.09.2018 03:00:00 13,2 10,3 - - 5 3 - - WSW 1018,5 26 0,0
16.09.2018 02:00:00 12,8 10,7 - - 4 2 - - SSW 1019,6 24 0,0
16.09.2018 01:00:00 12,7 11,2 - - 2 1 - - WSW 1020,4 17 0,0
16.09.2018 00:00:00 11,8 11,2 - - 4 2 - - SSE 1020,8 14 0,0
15.09.2018 23:00:00 10,9 9,1 - - 4 2 - - ESE 1021,6 12 0,0
15.09.2018 22:00:00 11,4 8,8 - - 4 2 - - E 1021,8 14 0,0
15.09.2018 21:00:00 12,5 9,0 - - 2 1 - - E 1022,1 12 0,0
15.09.2018 20:00:00 14,2 9,2 - - 4 2 - - SW 1022,3 13 0,0
15.09.2018 19:00:00 15,9 9,9 - - 2 1 - - SW 1022,2 15 0,0
15.09.2018 18:00:00 16,9 10,1 - - 5 3 - - SW 1022,0 15 -
15.09.2018 17:00:00 17,5 9,8 - - 8 4 - - SW 1022,4 15 0,0
15.09.2018 16:00:00 18,9 10,3 - - 11 6 - - SW 1022,6 17 0,0
15.09.2018 15:00:00 18,0 10,9 - - 9 5 - - W 1023,0 13 0,0
15.09.2018 14:00:00 18,1 10,5 - - 5 3 - - WSW 1023,3 13 0,0
15.09.2018 13:00:00 17,7 9,8 - - 8 4 - - SW 1023,6 16 0,0
15.09.2018 12:00:00 17,8 10,7 - - 5 3 - - WSW 1023,7 13 0,0
15.09.2018 11:00:00 16,5 10,4 - - 5 3 - - WSW 1023,9 14 0,0
15.09.2018 10:00:00 15,4 10,9 14,0 14,5 4 2 - - S 1023,9 12 0,0
15.09.2018 09:00:00 13,5 11,6 - - 2 1 - - SSW 1023,8 12 0,0
15.09.2018 08:00:00 10,3 10,3 - - 0 0 - - N 1023,8 10 0,0
15.09.2018 07:00:00 8,3 7,7 - - 2 1 - - ENE 1023,1 7 0,0
15.09.2018 06:00:00 10,1 8,1 - - 4 2 - - SSW 1022,6 9 0,0
15.09.2018 05:00:00 10,9 9,4 - - 4 2 - - W 1022,6 10 0,0
15.09.2018 04:00:00 10,7 9,1 - - 4 2 - - WSW 1022,5 23 0,0
15.09.2018 03:00:00 10,9 10,0 - - 5 3 - - WSW 1022,3 17 0,0
15.09.2018 02:00:00 9,8 8,4 - - 2 1 - - SW 1022,3 14 0,0
15.09.2018 01:00:00 12,0 10,0 - - 5 3 - - WSW 1022,0 14 0,0
15.09.2018 00:00:00 13,1 10,4 - - 8 4 - - WSW 1022,1 16 0,0
14.09.2018 23:00:00 13,5 11,2 - - 8 4 - - WSW 1021,5 15 0,0
14.09.2018 22:00:00 12,2 10,8 - - 5 3 - - SW 1021,3 14 0,0
14.09.2018 21:00:00 11,3 9,3 - - 2 1 - - SW 1021,0 14 0,0
14.09.2018 20:00:00 12,6 9,4 - - 2 1 - - SW 1020,6 13 0,0
14.09.2018 19:00:00 14,8 9,7 - - 16 9 - - WNW 1019,9 21 0,0
14.09.2018 18:00:00 16,1 10,7 - - 16 9 - - WSW 1019,3 12 0,0
14.09.2018 17:00:00 17,5 10,3 - - 16 9 - - WSW 1018,9 19 0,0

tt = Température de l'air
td = dewpoint
tt -20cm = Température de l'air -20cm
tt -100cm = Température de l'air -100cm
ff = Vitesse du vent
fx = gusts
dd = Direction du vent
ppp = reduced air pressure
vv = visibility
rr = Quantités de précipitations

stations d'obs. à proximité